Regional Weather Roundup
Issued by NWS

Home | Current Version | Previous Version | Text Only | Print | Product List | Glossary Off
Versions: 1 2 3 4 5 6 7 8 9 10 11 12 13 14 15 16 17 18 19 20 21 22 23 24 25 26 27 28 29 30 31 32 33 34 35 36 37 38 39 40 41 42 43 44 45 46 47 48 49 50

000
ASUS44 KMEG 200710
RWRTN
TENNESSEE HOURLY STATE WEATHER ROUNDUP
NATIONAL WEATHER SERVICE MEMPHIS TN
100 AM CST FRI JAN 20 2017

TNZ002-004-019-021-049-052-054-088>092-200800-
WEST TENNESSEE

CITY           SKY/WX    TMP DP  RH WIND       PRES   REMARKS
MEMPHIS INTL   CLOUDY    57  55  94 S9G17     29.71F
NWS MEMPHIS      N/A     57 N/A N/A MISG        N/A
JACKSON        CLOUDY    57  56  96 SW13G20   29.71S
DYERSBURG      CLOUDY    55  52  88 W13       29.70R
UNION CITY     CLOUDY   N/A N/A N/A SW15      29.67S
PARIS          CLOUDY    54  54 100 SW14      29.68S
HUNTINGDON     CLOUDY    57  55  94 SW8       29.69R
$$

TNZ008-025-027-028-033-062-065-066-200800-
NORTH MIDDLE TENNESSEE

CITY           SKY/WX    TMP DP  RH WIND       PRES   REMARKS
NASHVILLE      CLOUDY    57  55  93 S5        29.70R
PORTLAND       CLOUDY    57  57 100 SW7       29.68R
CLARKSVILLE    CLOUDY    56  54  93 CALM      29.66F
SMYRNA         CLOUDY    56  55  97 S3        29.72R
GALLATIN       CLOUDY    57  57 100 CALM      29.73R
CROSSVILLE     HVY RAIN  53  52  96 SW12G21   29.75R FOG
$$

TNZ061-075-076-078-094-096-097-200800-
SOUTH MIDDLE TENNESSEE

CITY           SKY/WX    TMP DP  RH WIND       PRES   REMARKS
TULLAHOMA      CLOUDY    57  57 100 SW9       29.72F
WINCHESTER     MOCLDY    57  57 100 CALM      29.74S
MCMINNVILLE    CLOUDY    57  57 100 CALM      29.71F
COLUMBIA       CLEAR    N/A N/A N/A S5        29.69R
SHELBYVILLE    CLOUDY    57  57 100 S6        29.73R
$$

TNZ017-018-042-046-047-200800-
NORTHEAST TENNESSEE

CITY           SKY/WX    TMP DP  RH WIND       PRES   REMARKS
TRI CITIES     CLOUDY    52  43  71 VRB5      29.79F
ELIZABETHTON   CLOUDY    59  43  55 E9        29.80F
$$

TNZ012-013-036-069-073-074-200800-
CENTRAL EAST TENNESSEE

CITY           SKY/WX    TMP DP  RH WIND       PRES   REMARKS
KNOXVILLE      LGT RAIN  51  48  89 NE8       29.71F
OAK RIDGE      LGT RAIN  51  49  92 CALM      29.75F FOG
GATLINBURG     CLOUDY    50  46  87 CALM      29.75F
MORRISTOWN     CLOUDY    55  46  71 CALM      29.75F
JACKSBORO      CLOUDY    50  48  93 CALM      29.77F
$$

TNZ083-085-099-200800-
SOUTHEAST TENNESSEE

CITY           SKY/WX    TMP DP  RH WIND       PRES   REMARKS
CHATTANOOGA    LGT RAIN  55  53  93 SW6       29.77R FOG
$$

SKY/WX REPORTED AS FAIR MEANS FEW OR NO CLOUDS BELOW
12 THOUSAND FEET.





USA.gov is the U.S. government's official web portal to all federal, state and local government web resources and services.